Regional Weather Roundup
Issued by NWS

Home | Current Version | Previous Version | Text Only | Print | Product List | Glossary Off
Versions: 1 2 3 4 5 6 7 8 9 10 11 12 13 14 15 16 17 18 19 20 21 22 23 24 25 26 27 28 29 30 31 32 33 34 35 36 37 38 39 40 41 42 43 44 45 46 47 48 49 50

000
ASUS44 KMEG 242200
RWRTN
TENNESSEE HOURLY STATE WEATHER ROUNDUP
NATIONAL WEATHER SERVICE MEMPHIS TN
400 PM CST FRI FEB 24 2017

TNZ002-004-019-021-049-052-054-088>092-242300-
WEST TENNESSEE

CITY           SKY/WX    TMP DP  RH WIND       PRES   REMARKS
MEMPHIS INTL   CLOUDY    69  57  65 W12       29.70R
NWS MEMPHIS      N/A     68 N/A N/A MISG        N/A
JACKSON        CLOUDY    67  57  70 SW13G21   29.70R
UNION CITY     CLOUDY    64  55  72 SW12      29.66R
PARIS          PTSUNNY   63  54  72 SW20      29.68R
$$

TNZ008-025-027-028-033-062-065-066-242300-
NORTH MIDDLE TENNESSEE

CITY           SKY/WX    TMP DP  RH WIND       PRES   REMARKS
NASHVILLE      PTSUNNY   79  51  37 S18G29    29.63F
CLARKSVILLE    MOSUNNY   76  48  37 W18G30    29.60R
SMYRNA         MOSUNNY   78  54  43 S14G21    29.65S
CROSSVILLE     MOSUNNY   72  52  49 S12G21    29.73S
$$

TNZ061-075-076-078-094-096-097-242300-
SOUTH MIDDLE TENNESSEE

CITY           SKY/WX    TMP DP  RH WIND       PRES   REMARKS
TULLAHOMA      MOSUNNY   75  50  41 S16       29.69F
WINCHESTER     MOSUNNY   75  54  46 S15       29.70F
MCMINNVILLE    MOSUNNY   77  55  47 S12       29.69S
COLUMBIA       SUNNY     79  52  38 S18G30    29.63S
SHELBYVILLE    PTSUNNY   81  55  41 SW18      29.67F
$$

TNZ017-018-042-046-047-242300-
NORTHEAST TENNESSEE

CITY           SKY/WX    TMP DP  RH WIND       PRES   REMARKS
TRI CITIES     MOSUNNY   77  48  35 SW9       29.73F
$$

TNZ012-013-036-069-073-074-242300-
CENTRAL EAST TENNESSEE

CITY           SKY/WX    TMP DP  RH WIND       PRES   REMARKS
KNOXVILLE      PTSUNNY   77  50  38 SW17      29.70F
OAK RIDGE      MOSUNNY   77  51  40 S12G18    29.71F
GATLINBURG     SUNNY     81  46  30 SW8       29.70F
$$

TNZ083-085-099-242300-
SOUTHEAST TENNESSEE

CITY           SKY/WX    TMP DP  RH WIND       PRES   REMARKS
CHATTANOOGA    PTSUNNY   78  52  40 S9G22     29.71F
$$

SKY/WX REPORTED AS FAIR MEANS FEW OR NO CLOUDS BELOW
12 THOUSAND FEET.




USA.gov is the U.S. government's official web portal to all federal, state and local government web resources and services.